Terminal Aerodrome Forecast
Issued by NWS Norman, OK

Home | Current Version | Previous Version | Text Only | Print | Product List | Glossary On
Versions: 1 2 3 4 5 6 7 8 9 10 11 12 13 14 15 16 17 18 19 20 21 22 23 24 25 26 27 28
000
FTUS44 KOUN 181744
TAFSPS
TAF
KSPS 181744Z 1818/1918 11010KT P6SM SCT050 OVC200
      TEMPO 1818/1819 4SM TSRA BKN050CB
     FM190100 14005KT P6SM BKN200
     FM191300 17008KT P6SM SCT280=

USA.gov is the U.S. government's official web portal to all federal, state and local government web resources and services.